Retour au catalogue

COSMOS 2251 DEB

ActifLEO
NORAD 35890·DEBRIS·🇷🇺 Russia

Lancé Jun 16, 1993 depuis Plesetsk Cosmodrome

Loading…

Prochains Passages (prochaines 24 heures)

TLE

FraisSource: Space-Track

Époque: Sep 14, 2026, 04:16 UTC

1 35890U 93036AUD 26257.17810910  .00004672  00000-0  94066-3 0  9992
2 35890  73.9334  74.2679 0053695 137.8640 222.6673 14.60912286691696

Suivez COSMOS 2251 DEB en temps réel avec AllMySat

Download on the App Store